星链-5022 (STARLINK-5022 )

导读 | 豆包AI

STARLINK-5022是美国SpaceX星链互联网卫星星座的一员,于2022年9月24日发射入轨,归属美国航天发射项目。该卫星旨在为全球范围内用户提供低延迟、高速率的卫星互联网接入服务,填补地面网络覆盖盲区,依托星链星座大规模组网架构,服务全球通信与互联网连接需求,是星链组网扩容的重要组成卫星。

基本信息
目录编号:
53903
目录名称:
STARLINK-5022
国际标识:
2022-119T
轨道中心:
EARTH
卫星名称:
星链-5022
卫星全名:
星链-5022 (STARLINK-5022 )
卫星状态:
在轨 (已飞行1314 天)
发射日期:
2022-09-24 UTC
国别 :
美国 (US)
星等 :
--
轨道信息
数据来源 国际轨道数据 AOE轨道数据
星历时间 2026-04-30T12:48:22+0800
11小时前
查看轨道信息
2026-04-29T20:00:00+0800
1天前
查看轨道信息
半长轴 6917.877km 6917.887km
偏心率 0.000146 0.0001436
轨道倾角 53.216° 53.215°
近地点辐角 66.467° 54.188°
升交点赤经 92.686° 95.830°
平近点角 293.647° 100.197°
近地点 538.729km 538.756km
远地点 540.751km 540.744km
周期 95.437分钟 95.438分钟
每日圈数 15.088412 15.088379
详细信息
固有亮度:
5
最大亮度:
2.5
卫星平台:
Starlink v1.5
覆盖范围:
全球
运营商:
太空探索技术公司
运营商所在国:
美国
制造商(研发单位):
太空探索技术公司
制造商所在国:
美国
使用方式:
暂无
卫星简介
星链(Starlink)计划是由太空探索技术公司(SpaceX)提出的一个巨型低轨卫星互联网星座项目,计划在2019年至2024年间在太空搭建由约1.2万颗卫星组成的“星链”网络,其中1584颗将部署在地球上空550千米处的近地轨道,并从2020年开始工作。该卫星仍在工作。
2D轨道图
3D轨道图
轨道高度分析图
轨道倾角分析图
轨道综合分析图
查看轨道综合分析图